Preview of NWS' New Version of Forecast
This preview is not operational and should not be used for support decisions.

Regional Weather Roundup (RWR)

Issued by National Weather Service (NWS)

                            
000
ASUS42 KTBW 190116
RWRFL 
FLORIDA REGIONAL WEATHER ROUNDUP
NATIONAL WEATHER SERVICE TAMPA BAY RUSKIN FL
900 PM EDT MON MAR 18 2019

NOTE: "FAIR" INDICATES FEW OR NO CLOUDS BELOW 12,000 FEET WITH NO
SIGNIFICANT WEATHER AND/OR OBSTRUCTIONS TO VISIBILITY.

FLZ001>010-012>015-112-114-115-190200-
PANHANDLE FLORIDA
  
CITY           SKY/WX    TMP DP  RH WIND       PRES   REMARKS
PENSACOLA      FAIR      61  35  37 N6        30.24R                  
PENSACOLA NAS  CLOUDY    58  37  45 N5        30.23R                  
MILTON NAS     CLOUDY    53  41  63 N6        30.24R                  
CRESTVIEW      FAIR      55  38  52 CALM      30.24R                  
DUKE FIELD     FAIR      55  39  55 CALM      30.23R                  
VALPARAISO     FAIR      59  34  39 N6        30.22R                  
MARY ESTHER    CLOUDY    57  37  47 N7        30.21R                  
PANAMA CITY    FAIR      54  45  71 NW5       30.20R                  
TYNDALL AFB    FAIR      60  38  44 N5        30.20R                  
APALACHICOLA   FAIR      59  36  42 N6        30.18S                  

STATION/POSITION SKY/WX   TEMP    WIND        PRES    WAVE   SWELL
                          AIR SEA DIR/SP/G            HT/PER HT/PER
                          (F)     (DEG/KT/KT) (MB)    (FT/S) (FT/S)
30.1N   87.6W                                 1023.7R   2/ 4
29.2N   88.2W                      40/ 19/ 25 1023.5R   5/ 6
PANAMA CITY BEAC           60 65  360/  5/  6 1023.1R
TOWER C                    63      20/ 20/ 21 1021.9R

$$
FLZ011-016>038-118-127-128-134-139-239-190200-
NORTH FLORIDA
  
CITY           SKY/WX    TMP DP  RH WIND       PRES   REMARKS
MARIANNA       FAIR      59  35  40 N5        30.20R                  
TALLAHASSEE    CLOUDY    59  40  49 N3        30.19F                  
PERRY          FAIR      60  38  44 CALM      30.19F                  
LIVE OAK       CLEAR     55  43  62 CALM      30.19R                  
CROSS CITY     FAIR      58  40  50 N3        30.18R                  
LAKE CITY      FAIR      54  43  66 CALM      30.19R                  
GAINESVILLE    FAIR      63  38  39 N5        30.20R                  
WILLISTON        N/A    N/A N/A N/A MISG        N/A                   
PALATKA        FAIR      59  37  44 NE5       30.19R                  
MAYPORT NAS    CLOUDY    60  42  51 E3        30.18R                  
JACKSONVILLE   CLOUDY    56  45  66 CALM      30.17R                  
JAX NAS        CLOUDY    63  36  36 NE6       30.18R                  
JAX CECIL      CLEAR    N/A N/A N/A CALM      30.17S                  
FERNANDINA BEA FAIR      57  42  56 CALM      30.18R                  
ST AUGUSTINE   FAIR      60  44  55 N3        30.19R                  
PALM COAST     FAIR      60  44  55 N6        30.18R                  

STATION/POSITION SKY/WX   TEMP    WIND        PRES    WAVE   SWELL
                          AIR SEA DIR/SP/G            HT/PER HT/PER
                          (F)     (DEG/KT/KT) (MB)    (FT/S) (FT/S)
SHELL POINT      NOT AVBL
KEATON BEACH               59      40/  2/  2 1022.0F
CEDAR KEY                  63     360/  5/  7 1021.4R
FERNANDINA                 60 63  150/  1/  1 1022.6R
30.7N   81.3W                 63                N/A     3/ 8
MAYPORT                    61 63   70/  2/  3 1021.9R
31.4N   80.9W              62 62  220/  2/  4 1021.6R   3/ 9   3/ 9
ST AUGUSTINE               62 63   20/ 13/ 14 1021.9R

$$
FLZ040-043>046-052-053-057-058-063-144-190200-
INTERIOR CENTRAL FLORIDA
  
CITY           SKY/WX    TMP DP  RH WIND       PRES   REMARKS
OCALA          FAIR      62  35  36 NE5       30.17R                  
LEESBURG       CLOUDY    62  34  35 NE14      30.17R                  
SANFORD        CLOUDY    62  48  60 N12       30.15R                  
ORLANDO EXEC   CLOUDY    63  47  55 N14       30.14R                  
ORLANDO INTL   LGT RAIN  62  47  57 N15       30.13R                  
KISSIMMEE      CLOUDY    63  49  60 NE12G18   30.15R                  
WINTER HAVEN   CLOUDY    63  50  62 NE10      30.14R                  
BARTOW         CLOUDY    61  54  77 NE10      30.12R                  
SEBRING        FAIR      62  53  74 N14G21    30.11R                  
OKEECHOBEE     DRIZZLE   61  57  88 N8        30.08R                  

$$
FLZ041-047-054-059-064-141-147-190200-
EAST CENTRAL FLORIDA
  
CITY           SKY/WX    TMP DP  RH WIND       PRES   REMARKS
DAYTONA BEACH  CLOUDY    63  46  54 N12       30.16R                  
DELAND         CLOUDY    61  45  55 N10       30.16R                  
NEW SMYRNA BEA CLOUDY    63  46  55 N13G23    30.16R                  
JFK SPACE CTR  CLOUDY    64  54  69 N10G18    30.12R                  
TITUSVILLE     CLOUDY    66  52  59 N17G23    30.12R                  
CAPE CANAVERAL CLOUDY    65  54  68 N14       30.10R                  
PATRICK AFB    DRIZZLE   64  57  77 N15G23    30.10R                  
MELBOURNE      LGT RAIN  65  55  70 N14       30.10R                  
VERO BEACH     CLOUDY    66  60  81 N17       30.08R                  
FT PIERCE      MOCLDY    66  59  78 N6G17     30.07R                  
STUART         CLOUDY    68  63  83 N9G18     30.07R                  

STATION/POSITION SKY/WX   TEMP    WIND        PRES    WAVE   SWELL
                          AIR SEA DIR/SP/G            HT/PER HT/PER
                          (F)     (DEG/KT/KT) (MB)    (FT/S) (FT/S)
28.5N   80.2W              69      20/ 19/ 23 1019.5R   5/ 8   3/ 8
28.9N   78.5W              69 74   10/ 19/ 25 1018.8R   6/ 8   3/ 8
TRIDENT PIER               65 68  350/ 13/ 19 1020.7R
28.4N   80.5W                 66                N/A     3/ 7
27.5N   80.2W                 69                N/A     5/ 5

$$
FLZ050-056-061-142-242-148-248-149-249-151-251-155-255-
160-260-190200-
WEST CENTRAL FLORIDA
  
CITY           SKY/WX    TMP DP  RH WIND       PRES   REMARKS
CRYSTAL RIVER  FAIR      63  36  36 NE5       30.16S                  
INVERNESS      FAIR      63  41  45 NE9       30.16R                  
BROOKSVILLE    FAIR      66  42  41 NE9       30.14R                  
CLEARWATER AIR FAIR      64  50  59 E10       30.11R                  
ST PETE CLEARW FAIR      66  52  60 NE16G23   30.11R                  
TAMPA INTL     CLOUDY    67  51  56 NE6       30.12R                  
TAMPA EXEC     CLOUDY    64  52  63 NE7       30.14R                  
PLANT CITY     CLOUDY    66  52  59 NE10      30.14S                  
MACDILL AFB    FAIR      64  52  63 E16       30.11R                  
PETER O KNIGHT CLOUDY    66  55  68 NE12      30.12R                  
ST PETERSBURG  LGT RAIN  67  56  67 NE21      30.10R                  
SARASOTA       LGT RAIN  63  58  83 E9        30.09R                  
VENICE         LGT RAIN  64  57  77 NE10G17   30.10R                  

STATION/POSITION SKY/WX   TEMP    WIND        PRES    WAVE   SWELL
                          AIR SEA DIR/SP/G            HT/PER HT/PER
                          (F)     (DEG/KT/KT) (MB)    (FT/S) (FT/S)
27.3N   84.2W                 73                N/A     6/ 6
CLEARWATER BEACH           68 73   60/ 11/ 15 1019.6R
MIDDLE TAMPA BAY           65      90/ 14/ 15 1019.6R
VENICE                     63 73   40/ 10/ 12 1019.0R

$$
FLZ066-069-070-075>078-162-262-165-265-190200-
SOUTHWEST FLORIDA AND KEYS
  
CITY           SKY/WX    TMP DP  RH WIND       PRES   REMARKS
PUNTA GORDA    MOCLDY    64  55  72 NE16      30.11R                  
FT MYERS       FAIR      66  56  70 NE16      30.06R                  
SOUTHWEST INTL FAIR      66  57  72 NE14      30.06R                  
NAPLES         CLOUDY    70  61  73 NE14G21   30.03R                  
MARCO ISLAND   LGT RAIN  70  63  78 N14       30.04R                  
IMMOKALEE      CLOUDY    68  59  73 NE14      30.04R                  
MARATHON       MOCLDY    79  67  66 N10       29.99R                  
KEY WEST NAS   CLOUDY    77  67  71 NE14      30.00R                  
KEY WEST INTL  CLOUDY    76  68  76 NE12G20   30.00R                  

STATION/POSITION SKY/WX   TEMP    WIND        PRES    WAVE   SWELL
                          AIR SEA DIR/SP/G            HT/PER HT/PER
                          (F)     (DEG/KT/KT) (MB)    (FT/S) (FT/S)
NAPLES                     71 77   70/ 10/ 16 1016.9R
26.0N   85.6W              67 80   30/ 21/ 33 1019.0R   6/ 6
DRY TORTUGAS               74      50/ 17/ 19 1016.2R
SAND KEY                   75                 1015.6R
SOMBRERO KEY               76                 1014.8R
MOLASSES REEF              73      80/  5       N/A

$$
FLZ067-068-071>074-168-172>174-190200-
SOUTHEAST FLORIDA 
  
CITY           SKY/WX    TMP DP  RH WIND       PRES   REMARKS
W PALM BEACH   MOCLDY    69  63  81 N15       30.04R                  
BOCA RATON     CLOUDY    72  64  78 N13       30.03R                  
FT LAUDER-EXEC FAIR      71  66  84 N8        30.02R                  
FT LAUDERDALE  CLOUDY    72  63  73 N12       30.01R                  
POMPANO BEACH  CLOUDY    71  63  75 N10       30.02R                  
PEMBROKE PINES MOCLDY    74  64  71 NE14      30.02R                  
OPA LOCKA      CLOUDY    75  65  70 NE9       30.02R                  
MIAMI          LGT RAIN  72  70  93 NE8       30.01R                  
WEST KENDALL   CLOUDY    75  66  73 N9        30.01R                  
HOMESTEAD      MOCLDY    73  68  82 N8        30.00R                  

STATION/POSITION SKY/WX   TEMP    WIND        PRES    WAVE   SWELL
                          AIR SEA DIR/SP/G            HT/PER HT/PER
                          (F)     (DEG/KT/KT) (MB)    (FT/S) (FT/S)
PORT EVERGLADES            73      50/  7/ 17 1016.0R
VIRGINIA KEY               74 79   20/  5/ 12 1015.5R
LAKE WORTH                 70 78  360/ 18/ 22 1017.9R
FOWEY ROCKS                74 78   40/ 16/ 17 1016.9R
SETTLEMENT POINT           74      50/  9/ 10 1016.8R

$$